Weather in Iwakuni

Japan     34°09′45″N   132°13′10″E
temp.,
°C
wind,
m/s
gust,
m/s
humid.,
%
clouds,
%
prec.,
mm/h
press.,
hPa
HPBL,
m
17 april, sat
sat1700:00+13nnw1194100 0.3 101827
03:00+13wnw0196100 1.6 101641
06:00+13ese2398100 7.3 1016151
09:00+13s1299100 17.9 1016150
12:00+14s1295100 3.8 1012276
15:00+15sse358335 4.0 1010602
18:00+15w5117853 0.2 1009711
21:00+11w815580 0.2 10111107
18 april, sun
sun1800:00+9w712601 0.0 10121024
03:00+8w713570 0.0 10121119
06:00+7w713622 0.0 10121217
09:00+11wnw712535 0.0 10131673
12:00+13wnw811453 0.0 10121891
15:00+13nw812525 0.0 10131662
18:00+11nw511590 0.0 10141296
21:00+7w22680 0.0 101768
19 april, mon
mon1900:00+6wnw32730 0.0 101879
03:00+6wnw22740 0.0 101774
06:00+7wnw11770 0.0 101784
09:00+13ssw24583 0.0 1017921
12:00+16se14515 0.0 10161170
15:00+17ene13510 0.0 1015847
18:00+14wsw01670 0.0 101524
21:00+10wnw33660 0.0 101851
20 april, tue
tue2000:00+9nw22540 0.0 101848
03:00+9nw21520 0.0 101847
06:00+9nw11550 0.0 101947
09:00+14sse22460 0.0 1020294
12:00+16se23480 0.0 1020579
15:00+17ese22550 0.0 1019338
18:00+15e00720 0.0 101917
21:00+12nnw22660 0.0 102122
21 april, wed
wed2100:00+11nnw22510 0.0 102338
03:00+11nnw22490 0.0 102343
06:00+11nnw22533 0.0 102447
09:00+16e12494 0.0 1025248
12:00+18se23450 0.0 1023525
15:00+18sse23510 0.0 1021267
18:00+16wsw11632 0.0 102115
21:00+14nnw336449 0.0 102322